Regional Weather Roundup
Issued by NWS Cleveland, OH

Home | Current Version | Previous Version | Graphics & Text | Print | Product List | Glossary On
Versions: 1 2 3 4 5 6 7 8 9 10 11 12 13 14 15 16 17 18 19 20 21 22 23 24 25 26 27 28 29 30 31 32 33 34 35 36 37 38 39 40 41 42 43 44 45 46 47 48 49 50
000
ASUS41 KCLE 302300
RWRCLE
OHIO REGIONAL WEATHER ROUNDUP
NATIONAL WEATHER SERVICE WILMINGTON, OH
700 PM EDT TUE AUG 30 2016

NOTE: "FAIR" INDICATES FEW OR NO CLOUDS BELOW 12,000 FEET WITH NO
SIGNIFICANT WEATHER AND/OR OBSTRUCTIONS TO VISIBILITY.

OHZ001>008-015>018-024>027-034-035-043-044-310000-
   NORTHWEST OHIO

CITY           SKY/WX    TMP DP  RH WIND       PRES   REMARKS
DEFIANCE       RAIN      73  69  87 SW9G22    30.07R FOG
FINDLAY        FAIR      82  68  62 CALM      30.05S
TOLEDO EXPRESS FAIR      78  71  79 CALM      30.04F
TOLEDO EXEC    FAIR      83  61  47 SW3       30.05F
LIMA           FAIR      80  74  81 CALM      30.05F
$$

OHZ009>014-019>023-028>033-038-089-310000-
   NORTHEAST OHIO

CITY           SKY/WX    TMP DP  RH WIND       PRES   REMARKS
CLE-HOPKINS    PTSUNNY   80  59  48 N7        30.08F
CLE-LAKEFRONT  FAIR      79  65  62 NE8       30.05F
CUY CO. ARPT   NOT AVBL
LORAIN-ELYRIA  FAIR      77  62  59 NE5       30.06F
ASHTABULA      FAIR      75  68  78 CALM      30.08F
AKRON-CANTON   FAIR      84  54  35 CALM      30.08S
WOOSTER        NOT AVBL
MANSFIELD      FAIR      81  64  56 W3        30.09S
YOUNGSTOWN     MOCLDY    81  58  45 E5        30.07F
$$

OHZ042-051>053-060>062-070>072-077>081-310000-
  SOUTHWEST OHIO

CITY           SKY/WX    TMP DP  RH WIND       PRES   REMARKS
CINC-COVINGTON FAIR      85  67  54 S5        30.04F
CINC-LUNKEN    FAIR      85  70  60 CALM      30.03F
HAMILTON       FAIR      85  67  54 CALM      30.04F
DAYTON         NOT AVBL
WRIGHT-PAT AFB FAIR      85  61  44 SE6       30.05S
DAYTON GENERAL FAIR      84  64  50 SE3       30.05F
WILMINGTON     FAIR      85  66  53 CALM      30.06F
$$

OHZ036-037-039>041-045>050-054>059-063>069-073>076-082>088-310000-
  CENTRAL AND SOUTHEAST OHIO

CITY           SKY/WX    TMP DP  RH WIND       PRES   REMARKS
COLUMBUS       FAIR      85  59  41 S7        30.05S
OSU AIRPORT    FAIR      83  63  50 W8        30.06S
BOLTON FIELD   SUNNY     82  70  65 S3        30.06
RICKENBACK AFB NOT AVBL
NEWARK         FAIR      84  61  45 CALM      30.05F
MARION         FAIR      81  63  54 S3        30.07F
LANCASTER      FAIR      85  65  51 N3        30.06F
ZANESVILLE     FAIR      85  59  41 N5        30.06F
NEW PHILLY     FAIR      86  58  38 SW3       30.07S
$$




USA.gov is the U.S. government's official web portal to all federal, state and local government web resources and services.